This is the latest recevied weather packets stored in our database for station/object N0HOT. If no packets are shown the sender has not sent any weather packets the latest 1 day(s).
| Time | Temp. | Humidity | Pressure | Rain* | Wind** | Luminosity | Snow |
|---|---|---|---|---|---|---|---|
| 1777966365 | 6.67° C | 46% | 1007 hPa | 0 mm | 0.45 m/s, 183° | 0 W/m² | - |
| 1777966062 | 6.67° C | 46% | 1007 hPa | 0 mm | 0.45 m/s, 185° | 0 W/m² | - |
| 1777965758 | 7.22° C | 46% | 1007 hPa | 0 mm | 0.45 m/s, 191° | 0 W/m² | - |
| 1777965453 | 7.22° C | 45% | 1007 hPa | 0 mm | 0.45 m/s, 187° | 0 W/m² | - |
| 1777965151 | 7.22° C | 46% | 1007 hPa | 0 mm | 0.45 m/s, 186° | 0 W/m² | - |
| 1777964848 | 7.22° C | 44% | 1007 hPa | 0 mm | 0.45 m/s, 186° | 0 W/m² | - |
| 1777964544 | 7.22° C | 44% | 1007 hPa | 0 mm | 0.45 m/s, 177° | 0 W/m² | - |
| 1777964240 | 7.22° C | 44% | 1007 hPa | 0 mm | 0.45 m/s, 195° | 0 W/m² | - |
| 1777963937 | 7.22° C | 44% | 1007 hPa | 0 mm | 0.89 m/s, 199° | 0 W/m² | - |
| 1777963634 | 7.22° C | 43% | 1007 hPa | 0 mm | 0.45 m/s, 175° | 0 W/m² | - |
| 1777963332 | 7.22° C | 43% | 1006.6 hPa | 0 mm | 0.45 m/s, 180° | 0 W/m² | - |
| 1777963029 | 7.78° C | 43% | 1006.6 hPa | 0 mm | 0.89 m/s, 254° | 0 W/m² | - |
| 1777962725 | 7.78° C | 43% | 1007 hPa | 0 mm | 0.45 m/s, 184° | 0 W/m² | - |
| 1777962421 | 7.78° C | 42% | 1007.3 hPa | 0 mm | 0.45 m/s, 178° | 0 W/m² | - |
| 1777962120 | 7.78° C | 43% | 1007 hPa | 0 mm | 0.89 m/s, 184° | 0 W/m² | - |
| 1777961816 | 7.78° C | 42% | 1007 hPa | 0 mm | 0.45 m/s, 185° | 0 W/m² | - |
| 1777961514 | 7.78° C | 41% | 1006.6 hPa | 0 mm | 0.45 m/s, 183° | 0 W/m² | - |
| 1777961211 | 7.78° C | 41% | 1007.3 hPa | 0 mm | 0.89 m/s, 172° | 0 W/m² | - |
| 1777960908 | 7.78° C | 41% | 1007 hPa | 0 mm | 0.45 m/s, 160° | 0 W/m² | - |
| 1777960603 | 8.33° C | 41% | 1007 hPa | 0 mm | 0.45 m/s, 178° | 0 W/m² | - |
| 1777960300 | 8.33° C | 41% | 1007 hPa | 0 mm | 0.89 m/s, 179° | 0 W/m² | - |
| 1777959998 | 8.33° C | 40% | 1006.6 hPa | 0 mm | 0.45 m/s, 198° | 0 W/m² | - |
| 1777959696 | 8.33° C | 40% | 1007 hPa | 0 mm | 0.89 m/s, 155° | 0 W/m² | - |
| 1777959393 | 8.33° C | 40% | 1007 hPa | 0 mm | 2.68 m/s, 195° | 0 W/m² | - |
| 1777959089 | 8.33° C | 39% | 1007 hPa | 0 mm | 1.34 m/s, 174° | 0 W/m² | - |
* Rain latest hour (hover to see other rain measurements)
** Current wind speed in m/s (hover to see current wind gust speed)